This is the latest recevied weather packets stored in our database for station/object G1OCN-WX. If no packets are shown the sender has not sent any weather packets the latest 1 day(s).
| Time | Temp. | Humidity | Pressure | Rain* | Wind** | Luminosity | Snow |
|---|---|---|---|---|---|---|---|
| 1777994682 | 15.56° C | 56% | 1012.4 hPa | 0 mm | 4.02 m/s, 0° | - | - |
| 1777994621 | 15.56° C | 56% | 1012.4 hPa | 0 mm | 4.47 m/s, 30° | - | - |
| 1777994561 | 15.56° C | 57% | 1012.4 hPa | 0 mm | 4.02 m/s, 28° | - | - |
| 1777994501 | 15.56° C | 57% | 1012.3 hPa | 0 mm | 4.02 m/s, 37° | - | - |
| 1777994441 | 15.56° C | 57% | 1012.4 hPa | 0 mm | 4.47 m/s, 28° | - | - |
| 1777994381 | 15.56° C | 57% | 1012.4 hPa | 0 mm | 4.47 m/s, 1° | - | - |
| 1777994321 | 15.56° C | 57% | 1012.4 hPa | 0 mm | 4.47 m/s, 17° | - | - |
| 1777994231 | 15.56° C | 57% | 1012.4 hPa | 0 mm | 4.47 m/s, 34° | - | - |
| 1777994171 | 15.56° C | 56% | 1012.4 hPa | 0 mm | 4.02 m/s, 351° | - | - |
| 1777994111 | 15.56° C | 57% | 1012.4 hPa | 0 mm | 4.47 m/s, 5° | - | - |
| 1777994051 | 15° C | 57% | 1012.4 hPa | 0 mm | 4.02 m/s, 14° | - | - |
| 1777993991 | 15° C | 57% | 1012.4 hPa | 0 mm | 4.47 m/s, 39° | - | - |
| 1777993931 | 15° C | 56% | 1012.5 hPa | 0 mm | 4.47 m/s, 22° | - | - |
| 1777993871 | 15° C | 56% | 1012.5 hPa | 0 mm | 5.36 m/s, 34° | - | - |
| 1777993811 | 15° C | 56% | 1012.5 hPa | 0 mm | 4.47 m/s, 23° | - | - |
| 1777993751 | 15° C | 56% | 1012.5 hPa | 0 mm | 5.36 m/s, 52° | - | - |
| 1777993691 | 15° C | 55% | 1012.5 hPa | 0 mm | 6.26 m/s, 25° | - | - |
| 1777993631 | 15° C | 55% | 1012.5 hPa | 0 mm | 5.81 m/s, 30° | - | - |
| 1777993571 | 15° C | 57% | 1012.5 hPa | 0 mm | 5.81 m/s, 19° | - | - |
| 1777993511 | 15° C | 58% | 1012.5 hPa | 0 mm | 4.47 m/s, 30° | - | - |
| 1777993451 | 15° C | 58% | 1012.5 hPa | 0 mm | 5.36 m/s, 28° | - | - |
| 1777993391 | 15° C | 58% | 1012.5 hPa | 0 mm | 6.26 m/s, 32° | - | - |
| 1777993330 | 15° C | 58% | 1012.5 hPa | 0 mm | 6.26 m/s, 28° | - | - |
| 1777993270 | 15.56° C | 57% | 1012.5 hPa | 0 mm | 5.81 m/s, 23° | - | - |
| 1777993210 | 15.56° C | 57% | 1012.5 hPa | 0 mm | 6.26 m/s, 33° | - | - |
* Rain latest hour (hover to see other rain measurements)
** Current wind speed in m/s (hover to see current wind gust speed)